This is the latest recevied weather packets stored in our database for station/object KE5WTH-14. If no packets are shown the sender has not sent any weather packets the latest 10 day(s).
| Time | Temp. | Humidity | Pressure | Rain* | Wind** | Luminosity | Snow |
|---|---|---|---|---|---|---|---|
| 1777646255 | 13.89° C | 80% | 1017.4 hPa | 0 mm | - | 132 W/m² | - |
| 1777646197 | 13.89° C | 80% | 1017.4 hPa | 0 mm | - | 123 W/m² | - |
| 1777646139 | 13.89° C | 80% | 1017.4 hPa | 0 mm | - | 123 W/m² | - |
| 1777646074 | 13.89° C | 80% | 1017.3 hPa | 0 mm | - | 120 W/m² | - |
| 1777646017 | 13.89° C | 80% | 1017.4 hPa | 0 mm | - | 118 W/m² | - |
| 1777645954 | 13.89° C | 80% | 1017.3 hPa | 0 mm | - | 114 W/m² | - |
| 1777645896 | 13.89° C | 80% | 1017.3 hPa | 0 mm | - | 111 W/m² | - |
| 1777645836 | 13.89° C | 80% | 1017.3 hPa | 0 mm | - | 102 W/m² | - |
| 1777645774 | 13.89° C | 80% | 1017.3 hPa | 0 mm | - | 97 W/m² | - |
| 1777645717 | 13.89° C | 80% | 1017.3 hPa | 0 mm | - | 93 W/m² | - |
| 1777645657 | 13.89° C | 80% | 1017.2 hPa | 0 mm | - | 93 W/m² | - |
| 1777645596 | 13.89° C | 80% | 1017.2 hPa | 0 mm | - | 97 W/m² | - |
| 1777645535 | 13.89° C | 80% | 1017.2 hPa | 0 mm | - | 100 W/m² | - |
| 1777645475 | 13.89° C | 80% | 1017 hPa | 0 mm | - | 98 W/m² | - |
| 1777645415 | 13.89° C | 81% | 1016.9 hPa | 0 mm | - | 97 W/m² | - |
| 1777645354 | 13.89° C | 81% | 1016.7 hPa | 0 mm | - | 97 W/m² | - |
| 1777645296 | 13.89° C | 81% | 1016.7 hPa | 0 mm | - | 99 W/m² | - |
| 1777645235 | 13.89° C | 81% | 1016.6 hPa | 0 mm | - | 97 W/m² | - |
| 1777645174 | 13.89° C | 81% | 1016.6 hPa | 0 mm | - | 93 W/m² | - |
| 1777645114 | 13.89° C | 81% | 1016.7 hPa | 0 mm | - | 86 W/m² | - |
| 1777645054 | 13.89° C | 81% | 1016.8 hPa | 0 mm | - | 86 W/m² | - |
| 1777644994 | 13.89° C | 81% | 1016.9 hPa | 0 mm | - | 86 W/m² | - |
| 1777644934 | 13.89° C | 81% | 1017 hPa | 0 mm | - | 90 W/m² | - |
| 1777644874 | 13.89° C | 81% | 1017 hPa | 0 mm | - | 90 W/m² | - |
| 1777644812 | 13.89° C | 81% | 1017.1 hPa | 0 mm | - | 90 W/m² | - |
* Rain latest hour (hover to see other rain measurements)
** Current wind speed in m/s (hover to see current wind gust speed)